Location: Litvinovka
(48.6667°N, 34.3500°E)
Time: 11:20:53
(UTC+00:00)

KORONAS-FOTON - Pass Details

Date: 18 September 2020
Orbit: 506 x 532 km, 82.4° (Epoch: 25 October)

Event Time Altitude Azimuth Distance (km) Brightness Sun altitude
Rises 17:45:13 0° 351° (N) 2,688 7.9 -19.4°
Reaches altitude 10° 17:47:22 10° 352° (N) 1,794 7.0 -19.7°
Maximum altitude 17:51:19 81° 81° (E) 546 3.7 -20.3°
Enters shadow 17:51:59 59° 155° (SSE) 618 3.8 -20.4°
